TimeEDT,TemperatureF,Dew PointF,Humidity,Sea Level PressureIn,VisibilityMPH,Wind Direction,Wind SpeedMPH,Gust SpeedMPH,PrecipitationIn,Events,Conditions,WindDirDegrees,DateUTC
12:54 AM,16.0,1.9,54,29.78,10.0,Calm,Calm,-,N/A,,Clear,0,2013-03-15 04:54:00
1:54 AM,12.0,3.0,67,29.78,10.0,Calm,Calm,-,N/A,,Clear,0,2013-03-15 05:54:00
2:54 AM,10.9,3.0,70,29.78,10.0,Calm,Calm,-,N/A,,Clear,0,2013-03-15 06:54:00
3:54 AM,15.1,3.0,59,29.78,10.0,Calm,Calm,-,N/A,,Clear,0,2013-03-15 07:54:00
4:54 AM,12.9,3.0,65,29.78,10.0,Calm,Calm,-,N/A,,Clear,0,2013-03-15 08:54:00
5:54 AM,10.9,1.9,67,29.79,10.0,Calm,Calm,-,N/A,,Clear,0,2013-03-15 09:54:00
6:54 AM,10.9,3.0,70,29.79,10.0,Calm,Calm,-,N/A,,Clear,0,2013-03-15 10:54:00
7:54 AM,17.1,1.0,50,29.80,10.0,West,5.8,-,N/A,,Clear,280,2013-03-15 11:54:00
8:54 AM,19.9,1.9,46,29.79,10.0,Calm,Calm,-,N/A,,Clear,0,2013-03-15 12:54:00
9:54 AM,21.0,1.9,44,29.79,10.0,North,3.5,-,0.00,,Clear,360,2013-03-15 13:54:00
10:54 AM,23.0,3.9,44,29.77,10.0,Calm,Calm,-,0.00,,Clear,0,2013-03-15 14:54:00
11:54 AM,25.0,5.0,43,29.74,10.0,ENE,3.5,-,0.00,,Clear,70,2013-03-15 15:54:00
12:54 PM,28.9,7.0,40,29.70,10.0,Calm,Calm,-,N/A,,Clear,0,2013-03-15 16:54:00
1:54 PM,33.1,5.0,31,29.65,10.0,Calm,Calm,-,0.00,,Clear,0,2013-03-15 17:54:00
2:54 PM,36.0,3.9,26,29.62,10.0,SW,5.8,-,N/A,,Partly Cloudy,230,2013-03-15 18:54:00
3:54 PM,35.1,9.0,34,29.60,10.0,SSW,8.1,-,0.00,,Overcast,200,2013-03-15 19:54:00
4:54 PM,36.0,10.0,34,29.59,10.0,WSW,8.1,18.4,N/A,,Overcast,250,2013-03-15 20:54:00
5:54 PM,33.1,18.0,54,29.60,10.0,WSW,9.2,-,N/A,,Overcast,240,2013-03-15 21:54:00
6:54 PM,32.0,19.0,59,29.60,10.0,SW,5.8,-,N/A,,Overcast,230,2013-03-15 22:54:00
7:54 PM,30.0,19.9,66,29.61,10.0,SW,3.5,-,N/A,,Scattered Clouds,230,2013-03-15 23:54:00
8:54 PM,28.0,21.9,78,29.61,10.0,SW,3.5,-,N/A,,Clear,230,2013-03-16 00:54:00
9:54 PM,26.1,21.9,84,29.62,10.0,Calm,Calm,-,N/A,,Clear,0,2013-03-16 01:54:00
10:54 PM,27.0,23.0,85,29.63,10.0,West,3.5,-,N/A,,Partly Cloudy,260,2013-03-16 02:54:00
11:54 PM,27.0,19.9,75,29.64,10.0,Variable,3.5,-,N/A,,Scattered Clouds,0,2013-03-16 03:54:00